Location: Champignolles
(47.0543°N, 4.5663°E)
Time: 13:35:19
(UTC+00:00)

IRS-1C Rocket - Pass Details

Date: 30 November 2020
Orbit: 800 x 806 km, 99.0° (Epoch: 26 January)

Event Time Altitude Azimuth Distance (km) Brightness Sun altitude
Rises 18:03:18 0° 169° (S) 3,308 7.3 -21.2°
Reaches altitude 10° 18:05:38 10° 172° (S) 2,381 6.6 -21.6°
Maximum altitude 18:10:53 72° 256° (WSW) 851 4.3 -22.5°
Drops below altitude 10° 18:16:11 10° 341° (NNW) 2,398 6.7 -23.4°
Sets 18:18:33 0° 344° (NNW) 3,333 7.4 -23.8°
